Terug naar catalogus

SHIYAN 28B-01

SY-28B 01

ActiefMilitairLEO
NORAD 64753·PAYLOAD·🇨🇳 China

Gelanceerd Jul 3, 2025 vanaf Xichang Satellite Launch Center

Loading…

Volgende Passages (komende 24 uur)

TLE

VerouderdSource: Space-Track

Epoch: Aug 31, 2026, 23:58 UTC

1 64753U 25145A   26243.99907950  .00000568  00000-0  52563-4 0  9991
2 64753  10.9980 192.3945 0002800  18.6607 341.3724 14.29416861 60771

Volg SHIYAN 28B-01 in realtime met AllMySat

Download on the App Store